Location: Bruderhein
(53.8035°N, 112.9265°W)
Time: 13:38:19
(UTC+00:00)

deb Delta 139 - Pass Details

Date: 05 December 2023
Orbit: 731 x 794 km, 98.6° (Epoch: 01 March)

Event Time Altitude Azimuth Distance (km) Brightness Sun altitude
Rises 14:00:54 0° 20° (NNE) 3,200 ? -12.4°
Reaches altitude 10° 14:03:23 10° 29° (NNE) 2,263 ? -12.1°
Maximum altitude 14:07:59 37° 97° (E) 1,145 ? -11.5°
Drops below altitude 10° 14:12:30 10° 164° (SSE) 2,230 ? -10.9°
Sets 14:14:55 0° 173° (S) 3,146 ? -10.5°
